Location: Pedholt
(56.0260°N, 10.2097°E)
Time: 00:23:39
(UTC+00:00)

A-11 Canister half - Pass Details

Date: 05 August 2021
Orbit: 1515 x 1685 km, 47.2° (Epoch: 19 September)

Event Time Altitude Azimuth Distance (km) Brightness Sun altitude
Rises 21:30:47 0° 283° (WNW) 4,892 12.3 -13.4°
Reaches altitude 10° 21:34:37 10° 271° (W) 3,922 11.5 -13.6°
Maximum altitude 21:42:12 25° 221° (SW) 2,916 10.2 -14.1°
Enters shadow 21:48:12 15° 179° (S) 3,588 10.4 -14.4°
Drops below altitude 10° 21:49:50 10° 172° (S) 3,943 - -14.5°
Sets 21:53:44 0° 160° (SSE) 4,924 - -14.8°
